Regional Weather Roundup
Issued by NWS

Home | Current Version | Previous Version | Graphics & Text | Print | Product List | Glossary On
Versions: 1 2 3 4 5 6 7 8 9 10 11 12 13 14 15 16 17 18 19 20 21 22 23 24 25 26 27
000
ASUS45 KSLC 262110
RWRUT

UTAH REGIONAL WEATHER ROUNDUP
NATIONAL WEATHER SERVICE SALT LAKE CITY UT
300 PM MDT WED APR 26 2017

UTZ001>011-023>025-262200-

NORTHERN UTAH

CITY           SKY/WX    TMP DP  RH WIND       PRES   REMARKS
BRIGHAM CITY   CLOUDY    55  35  47 S14G21    29.80S
DUGWAY         CLOUDY    57  29  33 SE7       29.78F
HILL AFB       PTSUNNY   52  34  49 SW12      29.80F
LOGAN          CLOUDY    53  35  50 S8        29.78F
OGDEN          CLOUDY    53  33  46 SW9       29.79F
SALT LAKE CITY CLOUDY    58  34  40 SW5       29.79F
TOOELE VALLEY  CLOUDY    57  36  44 S9        29.80F
WENDOVER       LGT RAIN  56  32  40 SW10      29.78F
HEBER CITY     PTSUNNY   52  30  43 SW12G18   29.82S
WEST JORDAN    CLOUDY    58  44  58 S12G18    29.81F

$$

UTZ011>015-024>027-262200-

CENTRAL/NORTHEAST UTAH

CITY           SKY/WX    TMP DP  RH WIND       PRES   REMARKS
PROVO AIRPORT  MOSUNNY   57  32  38 SE3       29.82F
MOAB/CANYONLAN SUNNY     62  19  19 W10       29.79F
DELTA          MOSUNNY   59  28  31 SW6       29.82S
PRICE          CLOUDY    55  23  28 E7        29.82F
ROOSEVELT      SUNNY     59  27  29 W21G32    29.79S
VERNAL         CLOUDY    54  26  34 NE3       29.77F

$$

UTZ013>016-019>022-027-262200-

SOUTHERN UTAH

CITY           SKY/WX    TMP DP  RH WIND       PRES   REMARKS
BRYCE CANYON   CLOUDY    51  21  30 VRB7      29.91F
CEDAR CITY     CLOUDY    60  28  29 W10G20    29.86F
MILFORD        PTSUNNY   61  28  28 SW14G25   29.83F
ST GEORGE      MOCLDY    73  28  18 W18G24    29.82F
HANKSVILLE     SUNNY     64  18  16 S7        29.81F
BLANDING       MOSUNNY   59  15  17 S7G22     29.91F

$$

REGIONAL REPORTS     COLORADO/ARIZONA

CITY           SKY/WX    TMP DP  RH WIND       PRES   REMARKS
CRAIG, CO      CLOUDY    50  33  52 W9        29.79F
GRAND JUNCTION CLOUDY    58  27  30 W9        29.81F
RIFLE, CO      CLOUDY    54  26  34 W14G26    29.81S
MONTROSE, CO   CLOUDY    55  26  32 SW10      29.84F
CORTEZ, CO     CLOUDY    56  20  24 SW15G21   29.88F
COLORADO CITY    N/A     68  27  21 W10G20    29.90F
PAGE, AZ       SUNNY     68  20  16 N6        29.81F
GRAND CANYON   SUNNY     62  26  25 W15G22    29.94F
KINGMAN, AZ    SUNNY     79  24  13 SW18G29   29.86F
FLAGSTAFF, AZ  PTSUNNY   60  23  24 W14G30    29.96F

$$

REGIONAL REPORTS    NEVADA/IDAHO/WYOMING

CITY           SKY/WX    TMP DP  RH WIND       PRES   REMARKS
LAS VEGAS, NV  PTSUNNY   82  22  11 E12       29.75F
ELY, NY        CLOUDY    55  30  38 W10       29.85F
ELKO, NV       CLOUDY    50  41  71 W20       29.82R
POCATELLO, ID  LGT RAIN  46  42  86 S15       29.78R
BURLEY, ID     LGT RAIN  46  41  82 NW9       29.78R
FORT BRIDGER,  CLOUDY    49  29  46 W23G31    29.84S
EVANSTON, WY   CLOUDY    44  29  55 SW17G29   29.83S
ROCK SPRINGS,  LGT RAIN  41  29  62 NW13G33   29.78S
KEMMERER, WY     N/A     43  30  61 W25G31    29.80S

$$




USA.gov is the U.S. government's official web portal to all federal, state and local government web resources and services.